Погода Алуксне

Погода Алуксне : погода сейчас, прогноз погоды и архив. Всё, что Вы хотите узнать о погоде Алуксне!

Поиск расширенной информации на нашем сайте:

Другие новости

Новости СМИ2

Главная страница сайта

Новости сайта

03.07.2017

Напоминаем, что на нашем специализированном сайте Метеоцентр.Азия вы можете получить высокодетализированные автоматические прогнозы погоды по пунктам России, СНГ и мира в авиационном формате (включающие направление и скорость ветра, видимость, явления погоды, количество и форму облачности, нижнюю и верхнюю границу облачности).

Рекомендуем: Прикольный подарок - Авто номера - автомобильные номера имена

Погода Алуксне - сегодня

Время (UTC), дата Ветер
(°,м/с) 
Видим.   Явления Облачность Т
(°С)
Тd
(°С)
f(%) Тe
(°С)
Pmin
(гПа)
dP
(гПа)
Po
(мм)
O2
(г/м3)
Тmin Tmax R s Состояние
почвы
15 09.12.17 200 (Ю) 10 км    9/9 300 м 
[St]
+0.1 -1.1 92 -2  1003.8  0.4  735  295           
18 09.12.17 190 (Ю) 10 км    9/9 300 м 
[St]
-0.2 -0.8 96 -1  1003.9  0.1  735  296    +1.2       
21 09.12.17 150 (ЮВ) 10 км    10/10 300 м 
[St]
-0.3 -0.5 99 -1  1003.5  -0.4  735  296           
00 10.12.17 180 (Ю) 10 км    10/10 300 м 
[St]
-0.6 -0.7 99 1002.5  -1  734  296           
03 10.12.17 180 (Ю) 10 км    9/9 300 м 
[St]
-1 -1.1 99 1001.4  -1.1  733  296           
06 10.12.17 190 (Ю) 10 км    10/10 300 м 
[St]
-1.5 -1.8 98 -2  1000.9  -0.6  733  296  -1.5      равномерный
мокрый или
старый снег
100% 
09 10.12.17 210 (ЮЗ) 10 км    10/10 300 м 
[St]
-1.7 -3.2 89 -4  1000.8  -0.1  733  297           
12 10.12.17 200 (Ю) 10 км    8/3 1000 м средняя, верхняя 
[Sc|Ac lent|Ci fib]
-2.2 -5.6 77 -2  1000.3  -0.5  732  298           
15 10.12.17 210 (ЮЗ) 10 км    4/0 средняя 
[Ac lent]
-4.2 -4.9 95 -4  1000.9  0.4  732  299           
18 10.12.17 180 (Ю) 10 км    10/10 300 м 
[St]
-2.2 -3 94 -2  1000.6  -0.1  732  297    -1.5       
21 10.12.17 180 (Ю) 10 км    10/10 300 м 
[St]
-1.8 -2.1 98 -3  1001.3  0.7  733  297           
00 11.12.17 170 (Ю) 10 км    10/10 300 м 
[St]
-1.8 -2.1 98 -1  1000.8  -0.5  732  297           
03 11.12.17 170 (Ю) 10 км    9/9 300 м 
[St]
-3.2 -3.3 99 -3  1000.6  -0.3  732  298           
06 11.12.17 130 (ЮВ) 10 км    8/8 600 м 
[Sc]
-2.9 -3.4 96 -4  1001  0.4  733  298  -3.6      равномерный
сухой снег
100% 
09 11.12.17 120 (ЮВ) 10 км    8/0 средняя, верхняя 
[As op|Ci fib]
-3 -4 93 -5  1001.6  0.6  733  298           
12 11.12.17 120 (ЮВ) 10 км    8/4 600 м средняя 
[Cu med, cong|Ac lent]
-3 -4.3 91 -5  1001.2  -0.4  732  299           
15 11.12.17 140 (ЮВ) 10 км    10/10 300 м 
[St]
-3.1 -3.7 96 -5  1002.1  0.9  733  298           
18 11.12.17 120 (ЮВ) 10 км    10/10 300 м 
[St]
-2.9 -3.4 96 -5  1002.9  0.8  734  299    -2.3       
21 11.12.17 130 (ЮВ) 10 км    10/10 300 м 
[St]
-2.7 -2.8 99 -5  1002.7  -0.2  734  298           
00 12.12.17 150 (ЮВ) 10 км    10/10 300 м 
[St]
-2.3 -2.4 99 -4  1002.5  -0.2  733  298           
03 12.12.17 140 (ЮВ) 10 км    10/10 200 м 
[St]
-1.5 -1.6 99 -4  1001.1  -1.3  733  296           
06 12.12.17 140 (ЮВ) 4{10}  10 км  слаб. ливневой дождь [диам. гололёда 1 мм]  10/10 200 м кучево-дожд. 
[Cb cap]
-0.6 -0.7 99 -3  998.7  -2.2  731  294  -2.9    0.4  равномерный
мокрый или
старый снег
100% 
09 12.12.17 150 (ЮВ) 5-10{11}  10 км  слаб. ливневой дождь [диам. гололёда 1 мм]  10/10 200 м кучево-дожд. 
[Cb cap]
+0 -0.1 99 -3  996.5  -2.1  730  293           
12 12.12.17 160 (Ю) 5{12}  10 км  в посл. час ливневой дождь [диам. гололёда 0 мм]  10/10 200 м 
[St]
+0.5 +0.4 99 -2  994.1  -2.3  727  292           
15 12.12.17 180 (Ю) 5{11}  10 км  слаб. ливневой дождь  10/10 200 м кучево-дожд. 
[Cb cap]
+1.6 +1.5 99 -1  993.6  -0.4  728  291           
Время (UTC), дата Ветер
(°,м/с) 
Видим.   Явления Облачность Т
(°С)
Тd
(°С)
f(%) Тe
(°С)
Pmin
(гПа)
dP
(гПа)
Po
(мм)
O2
(г/м3)
Тmin Tmax R s Состояние
почвы

Для получения пояснительной информации подведите курсор к названию столбца.

ПОГОДА Алуксне - архив

Всё, что Вы хотите узнать о погоде Алуксне - удобно и подробно!

Выберите нужную дату (начиная с 1 января 2015* года) и нажмите кнопку "Найти".
Будут отображены архивные сводки погоды по пункту Алуксне, начиная с указанной даты.


Отображать данные в формате CSV (для использования в таблицах Excel)


Внимание! Наш архив погоды предназначен исключительно для личного некоммерческого использования в познавательных целях. Если Вам необходимы официальные справки о состоянии погоды (для производственных, юридических, коммерческих и т.п. целей), обращайтесь в органы Росгидромета.

*Примечание: данная дата относится к архиву по метеостанциям СССР (Россия, СНГ, Балтия).
Архив по метеостанциям Зарубежной Европы и Азии (кроме Китая) хранится 10 дней, по другим регионам земного шара (Китай, Африка, Америка, Австралия, Океания) - 1 день.

Алуксне - район местоположения метеостанции


Название, широта, долгота, высота метеостанции:
Алуксне 57.4°ш. 27°д. 193 м над ур. моря [Латвия]

Дополнительная информация

В oтличие oт бoльшинства пoгoдных сайтoв мы публикуем пoдрoбную метеoинфoрмацию в детальнoм прoфессиoнальнoм фoрмате.

Характеристики температуры и влажнoсти вoздуха измеряются на высoте 2 м в тени вдали oт зданий и деревьев.
Скoрoсть ветра измеряется на высoте 10 м (на урoвне рoста челoвека скoрoсть ветра ниже в 1.5-2 раза). Если метеoстанция нахoдится в гoрoде или в лесу, тo скoрoсть ветра занижена на 2-4 м/с пo сравнению с oткрытым местoм. Скoрoсть ветра над акватoриями крупных рек и oзёр, а также на вершинах хoлмoв на 2-5 м/с выше, чем в oбычных услoвиях.
Атмoсфернoе давление в разных тoчках местнoсти мoжет значительнo oтличаться oт давления на метеoстанции, в зависимoсти oт услoвий рельефа (при пoдъёме на 10 м давление пoнижается примернo на 1 мм рт.ст.).